Weather History for Guymon, OK

Change the Weather History Date:

Tuesday, December 25, 2012

  Actual Average Record
Temperature  
Mean Temperature 16 °F 34 °F  
Max Temperature 21 °F 47 °F 73 °F (2005)
Min Temperature 11 °F 21 °F -1 °F (2002)
Degree Days  
Heating Degree Days 49 31  
Month to date heating degree days 616 739  
Since 1 July heating degree days 1349 1630  
Cooling Degree Days 0 0  
Month to date cooling degree days 0 0  
Year to date cooling degree days 1917 1482  
Moisture  
Dew Point 11 °F    
Average Humidity 76    
Maximum Humidity 84    
Minimum Humidity 67    
Precipitation  
Precipitation 0.01 in 0.02 in 0.08 in (2007)
Month to date precipitation 0.71 0.53  
Year to date precipitation 11.50 19.19  
Snow  
Snow 1.00 in - - ()
Month to date snowfall 1.2  
Since 1 July snowfall 1.2  
Snow Depth 0.00 in    
Sea Level Pressure  
Sea Level Pressure 30.17 in    
Wind  
Wind Speed 18 mph (North)    
Max Wind Speed 30 mph    
Max Gust Speed 36 mph    
Visibility 6 miles    
Events Snow    
T = Trace of Precipitation, MM = Missing Value Source: NWS Daily Summary

Daily Weather History Graph

Daily Weather History Graph

Search for Another Location

Airport:

Trip Planner

Search our weather history database for the weather conditions in past years. The results will help you decide how hot, cold, wet, or windy it might be!

Date:

Astronomy

Dec. 25, 2012 Rise Set
Actual Time 7:56 AM CST 5:36 PM CST
Civil Twilight 7:27 AM CST 6:05 PM CST
Nautical Twilight 6:55 AM CST 6:37 PM CST
Astronomical Twilight 6:23 AM CST 7:09 PM CST
Moon 3:44 PM CST (12/25) 5:31 AM CST (12/25)
Length of Visible Light 10h 37m
Length of Day
9h 39m
Waxing Gibbous, 94% of the Moon is Illuminated
Dec 25
Waxing Gibbous
Dec 28
Full
Jan 4
Last Quarter
Jan 11
New
Jan 18
First Quarter

Hourly Weather History & Observations

Time (CST) Temp. Windchill Dew Point Humidity Pressure Visibility Wind Dir Wind Speed Gust Speed Precip Events Conditions
12:53 AM 19.9 °F 4.8 °F 12.9 °F 74% 29.90 in 10.0 mi NNE 18.4 mph 24.2 mph N/A   Scattered Clouds
1:04 AM 19.4 °F 4.1 °F 12.2 °F 74% 29.87 in 10.0 mi NE 18.4 mph - N/A   Mostly Cloudy
1:53 AM 19.0 °F 4.5 °F 10.9 °F 71% 29.93 in 10.0 mi NNE 16.1 mph - N/A   Overcast
2:04 AM 17.6 °F 2.2 °F 12.2 °F 79% 29.90 in 10.0 mi North 17.3 mph 28.8 mph N/A   Overcast
2:53 AM 17.1 °F -0.3 °F 10.9 °F 77% 29.97 in 10.0 mi NNE 21.9 mph 25.3 mph N/A   Overcast
3:53 AM 17.1 °F 0.1 °F 10.0 °F 74% 29.99 in 10.0 mi NNE 20.7 mph 26.5 mph N/A   Overcast
4:53 AM 16.0 °F -0.9 °F 10.0 °F 77% 30.02 in 10.0 mi North 19.6 mph - N/A   Overcast
5:53 AM 15.1 °F -3.7 °F 9.0 °F 77% 30.05 in 7.0 mi North 24.2 mph 31.1 mph 0.00 in Snow Light Snow
6:53 AM 15.1 °F -3.7 °F 9.0 °F 77% 30.10 in 7.0 mi North 24.2 mph 28.8 mph 0.00 in Snow Light Snow
7:02 AM 15.8 °F -1.9 °F 8.6 °F 73% 30.04 in 9.0 mi North 21.9 mph 29.9 mph 0.00 in   Overcast
7:53 AM 16.0 °F 0.1 °F 9.0 °F 74% 30.14 in 10.0 mi North 17.3 mph 27.6 mph 0.00 in   Overcast
8:53 AM 16.0 °F -1.7 °F 8.1 °F 71% 30.15 in 9.0 mi North 21.9 mph 32.2 mph 0.00 in   Overcast
9:39 AM 15.8 °F -3.4 °F 8.6 °F 73% 30.09 in 7.0 mi North 26.5 mph 35.7 mph 0.00 in Snow Light Snow
9:46 AM 15.8 °F -3.4 °F 8.6 °F 73% 30.09 in 5.0 mi North 26.5 mph 33.4 mph 0.00 in Snow Light Snow
9:53 AM 16.0 °F -2.8 °F 9.0 °F 74% 30.17 in 3.0 mi North 25.3 mph 35.7 mph 0.00 in Snow Light Snow
10:53 AM 17.1 °F -2.0 °F 9.0 °F 71% 30.22 in 4.0 mi North 27.6 mph - 0.00 in Snow Light Snow
11:25 AM 17.6 °F 0.1 °F 10.4 °F 73% 30.15 in 2.5 mi North 23.0 mph 31.1 mph 0.00 in Snow Light Snow
11:43 AM 17.6 °F 0.1 °F 10.4 °F 73% 30.16 in 1.8 mi North 23.0 mph 32.2 mph 0.00 in Snow Light Snow
11:53 AM 18.0 °F 1.3 °F 12.0 °F 78% 30.25 in 2.0 mi North 20.7 mph 33.4 mph 0.00 in Snow Light Snow
12:03 PM 17.6 °F -1.0 °F 12.2 °F 79% 30.16 in 2.5 mi North 26.5 mph 32.2 mph 0.00 in Snow Light Snow
12:25 PM 19.4 °F 2.1 °F 12.2 °F 74% 30.15 in 3.0 mi North 24.2 mph 35.7 mph 0.00 in Snow Light Snow
12:53 PM 19.0 °F 1.3 °F 12.0 °F 74% 30.25 in 4.0 mi North 25.3 mph 32.2 mph 0.00 in Snow Light Snow
1:08 PM 19.4 °F 1.1 °F 12.2 °F 74% 30.16 in 2.0 mi North 27.6 mph 35.7 mph 0.00 in Snow Light Snow
1:22 PM 19.4 °F 2.1 °F 12.2 °F 74% 30.16 in 3.0 mi North 24.2 mph 32.2 mph 0.00 in Snow Light Snow
1:29 PM 19.4 °F 1.4 °F 12.2 °F 74% 30.17 in 2.5 mi North 26.5 mph 32.2 mph 0.00 in Snow Light Snow
1:53 PM 19.0 °F 2.4 °F 12.9 °F 77% 30.27 in 3.0 mi North 21.9 mph 28.8 mph 0.00 in Snow Light Snow
2:07 PM 19.4 °F 2.1 °F 12.2 °F 74% 30.18 in 2.5 mi North 24.2 mph 32.2 mph 0.00 in Snow Light Snow
2:19 PM 19.4 °F 2.8 °F 12.2 °F 74% 30.19 in 4.0 mi North 21.9 mph 31.1 mph 0.00 in Snow Light Snow
2:42 PM 17.6 °F -1.0 °F 12.2 °F 79% 30.19 in 2.0 mi North 26.5 mph 32.2 mph 0.00 in Snow Light Snow
2:53 PM 18.0 °F 1.3 °F 12.0 °F 78% 30.29 in 1.8 mi North 20.7 mph 29.9 mph 0.00 in Snow Light Snow
3:03 PM 17.6 °F 0.5 °F 12.2 °F 79% 30.20 in 2.5 mi North 21.9 mph - 0.00 in Snow Light Snow
3:32 PM 17.6 °F -0.3 °F 12.2 °F 79% 30.20 in 1.8 mi North 24.2 mph 32.2 mph 0.01 in Snow Light Snow
3:38 PM 17.6 °F 0.5 °F 12.2 °F 79% 30.20 in 3.0 mi North 21.9 mph 32.2 mph 0.01 in Snow Light Snow
3:49 PM 19.4 °F 3.6 °F 12.2 °F 74% 30.22 in 1.8 mi North 19.6 mph - 0.01 in Snow Light Snow
3:53 PM 19.0 °F 3.2 °F 12.9 °F 77% 30.31 in 1.5 mi North 19.6 mph - 0.01 in Snow Light Snow
4:31 PM 19.4 °F 4.5 °F 12.2 °F 74% 30.21 in 2.5 mi North 17.3 mph 29.9 mph 0.00 in Snow Light Snow
4:53 PM 18.0 °F 2.6 °F 12.0 °F 78% 30.31 in 3.0 mi North 17.3 mph 25.3 mph 0.00 in Snow Light Snow
5:53 PM 17.1 °F 1.5 °F 10.9 °F 77% 30.32 in 10.0 mi North 17.3 mph 23.0 mph 0.00 in   Overcast
6:53 PM 15.1 °F 1.8 °F 10.0 °F 80% 30.34 in 10.0 mi North 11.5 mph - N/A   Overcast
7:53 PM 14.0 °F 1.2 °F 8.1 °F 77% 30.36 in 10.0 mi North 10.4 mph - N/A   Overcast
8:18 PM 12.2 °F -0.2 °F 6.8 °F 79% 30.26 in 10.0 mi North 9.2 mph - N/A   Scattered Clouds
8:53 PM 12.0 °F -0.4 °F 7.0 °F 80% 30.39 in 10.0 mi NNW 9.2 mph - N/A   Clear
9:53 PM 12.9 °F -1.6 °F 8.1 °F 81% 30.38 in 10.0 mi NNW 12.7 mph - N/A   Overcast
10:53 PM 12.9 °F -1.6 °F 7.0 °F 77% 30.37 in 10.0 mi North 12.7 mph - N/A   Overcast
11:53 PM 10.9 °F -1.8 °F 5.0 °F 77% 30.34 in 10.0 mi North 9.2 mph - N/A   Partly Cloudy